www.pogodaiklimat.ru

Погода и климат >> Архив погоды >> Нигер >> Гуре


ПОГОДА в Гуре

  • Прогноз погоды в Гуре
  • Монитор погоды в Гуре

АРХИВ ПОГОДЫ в Гуре

Время (UTC), дата Ветер
(напр.,м/с)
 
Видим.   Явления Облачность Т
(С)
Тd
(С)
f
(%)
Тe
(С)
Тes
(С)
Комфортность P
(гПа)
Po
(гПа)
Тmin
(С)
Tmax
(С)
R
(мм)
R24
(мм)
S
(см)
00 16.04 В 6 3500 м пыль 9/0
[Cs]
+28.0 -1.9 14 +25 +25 комфорт 1012.4 962.2
03 16.04 В 4 2000 м пыль 9/0
[Cs]
+25.0 -0.6 18 +23 +23 комфорт 1012.2 961.9
06 16.04 В 4 2000 м пыль 9/0
[Cs]
+24.0 -0.9 19 +23 +23 комфорт 1014.2 963.4 +24.0
09 16.04 В 4 2000 м пыль 9/0
[Cs]
+31.0 -2.1 12 +28 +36 жарко 1015.3 964.8
12 16.04 В 2 2200 м пыль 9/0
[Cs]
+35.5 -1.9 9 +32 +49 жарко 1012.9 962.7
15 16.04 СЗ 4 2600 м пыль 9/0
[Cs]
+37.0 +1.0 10 +33 +38 жарко 1010.4 960.2
18 16.04 СЗ 2 2800 м пыль 9/0
[Cs]
+33.0 +2.0 14 +30 +30 жарко 1011.1 960.5 +38.0
21 16.04 штиль 0 2500 м пыль 9/0
[Cs]
+28.0 +0.5 17 +26 +26 жарко 1012.6 962.0
00 17.04 В 2 2500 м пыль 9/0
[Cs]
+27.0 -4.1 13 +24 +24 комфорт 1011.2 961.0
03 17.04 В 2 3000 м пыль 9/0
[Cs]
+23.0 +2.6 26 +23 +23 комфорт 1010.8 960.4
06 17.04 штиль 0 3000 м пыль 9/0
[Cs]
+21.8 -0.2 23 +21 +22 комфорт 1012.6 961.7 +21.0
09 17.04 В 6 3000 м пыль 9/0
[Cs]
+31.5 -4.2 10 +28 +33 жарко 1013.9 963.5
12 17.04 В 6 3000 м пыль 9/0
[Cs]
+36.5 -1.8 9 +33 +40 жарко 1011.4 961.3
15 17.04 В 6 3500 м пыль 9/0
[Cs]
+36.8 -4.6 7 +33 +35 жарко 1009.3 959.0
18 17.04 В 4 3500 м пыль 9/0
[Cs]
+33.0 -2.0 10 +29 +29 жарко 1010.7 959.9 +38.0
21 17.04 штиль 0 6000 м пыль 9/0
[Cs]
+28.5 -0.6 15 +26 +26 жарко 1012.5 962.0
00 18.04 штиль 0 6000 м пыль 9/0
[Cs]
+27.0 -2.2 15 +25 +25 комфорт 1011.4 961.3
03 18.04 В 2 6000 м пыль 9/0
[Cs]
+25.0 -2.3 16 +23 +23 комфорт 1010.5 960.3
06 18.04 штиль 0 3000 м пыль 9/0
[Cs]
+23.0 +0.5 23 +22 +23 комфорт 1012.3 961.5 +23.0
09 18.04 В 6 2000 м пыль 9/0
[Cs]
+32.0 -5.3 9 +28 +33 жарко 1012.8 962.4
12 18.04 В 4 4000 м пыль 9/0
[Cs]
+37.1 -2.4 8 +33 +45 жарко 1010.4 960.4
15 18.04 СВ 2 6000 м пыль 9/0
[Cs]
+37.5 -0.2 9 +34 +40 очень
жарко
1008.3 958.3
18 18.04 штиль 0 8000 м пыль 9/0
[Cs]
+32.4 +3.2 16 +30 +30 жарко 1009.9 959.1 +38.5
21 18.04 штиль 0 8000 м пыль 9/0
[Cs]
+30.5 -2.0 12 +27 +27 жарко 1010.4 960.3
00 19.04 В 2 8000 м пыль 9/0
[Cs]
+28.5 -0.5 15 +26 +26 жарко 1009.3 959.5
03 19.04 штиль 0 8000 м пыль 9/0
[Cs]
+26.6 +0.7 18 +25 +25 комфорт 1009.4 959.4
06 19.04 штиль 0 1000 м пыль 9/0
[Cs]
+26.0 +3.4 23 +25 +26 комфорт 1011.3 960.7 +26.0
09 19.04 СЗ 6 1000 м пыль 9/0
[Cs]
+35.2 -1.9 9 +31 +36 жарко 1014.0 962.3
12 19.04 СВ 6 2500 м пыль 9/0
[Cs]
+39.0 +0.8 9 +35 +42 очень
жарко
1010.3 960.6
15 19.04 СВ 2 2500 м пыль 9/0
[Cs]
+38.5 0.0 9 +35 +41 очень
жарко
1008.0 958.1
18 19.04 СВ 2 2300 м пыль 9/0
[Cs]
+35.4 +2.8 13 +32 +32 жарко 1008.7 958.6 +40.0
21 19.04 штиль 0 2000 м пыль 9/0
[Cs]
+32.0 +2.6 15 +29 +29 жарко 1010.2 960.4
00 20.04 штиль 0 2000 м пыль 9/0
[Cs]
+30.0 +3.0 18 +28 +28 жарко 1009.5 969.9
03 20.04 штиль 0 2000 м пыль 9/0
[Cs]
+28.5 +1.6 18 +26 +26 жарко 1009.1 959.4
06 20.04 СВ 2 2000 м пыль 9/0
[Cs]
+27.5 +1.2 18 +25 +26 комфорт 1010.0 959.9 +26.6
09 20.04 В 6 6000 м пыль 9/0
[Cs]
+35.0 -3.6 8 +31 +36 жарко 1011.6 961.7
12 20.04 В 6 6000 м пыль 9/0
[Cs]
+39.5 +0.7 9 +36 +43 очень
жарко
1008.7 959.2
15 20.04 В 4 6000 м пыль 9/0
[Cs]
+40.5 +3.5 10 +37 +41 очень
жарко
1006.7 957.2
18 20.04 В 2 8000 м пыль 9/0
[Cs]
+36.0 +3.8 13 +33 +33 жарко 1008.0 958.1 +41.8
21 20.04 С 4 10 км 9/0
[Cs]
+32.0 +1.9 15 +29 +29 жарко 1009.4 959.7
00 21.04 С 4 10 км 9/0
[Cs]
+31.0 -0.6 13 +28 +28 жарко 1008.3 958.9
03 21.04 СВ 6 10 км 9/0
[Cs]
+29.5 -0.1 15 +27 +27 жарко 1008.2 958.7
06 21.04 штиль 0 10 км 9/0
[Cs]
+27.0 +0.1 17 +25 +26 комфорт 1009.2 958.7 +27.0
09 21.04 В 10 10 км 9/0
[Cs]
+35.7 -2.3 9 +32 +32 жарко 1010.4 960.7
12 21.04 В 10 10 км 9/0
[Cs]
+40.5 -1.0 7 +36 +37 очень
жарко
1007.3 958.0
15 21.04 В 6 10 км 9/0
[Cs]
+41.0 +2.9 10 +38 +40 очень
жарко
1004.6 955.4
18 21.04 штиль 0 10 км 9/0
[Cs]
+36.5 +6.7 16 +34 +34 очень
жарко
1005.9 956.1 +42.3
21 21.04 штиль 0 10 км 9/0
[Cs]
+33.0 +4.2 16 +30 +30 жарко 1007.4 957.9
00 22.04 В 2 6000 м пыль 9/0
[Cs]
+30.5 +2.3 17 +28 +28 жарко 1007.0 957.7
03 22.04 В 4 1200 м пыль 9/0
[Cs]
+29.5 -2.3 13 +26 +26 жарко 1006.6 957.2
06 22.04 В 2 1000 м пыль 9/0
[Cs]
+28.0 -1.8 14 +25 +26 комфорт 1008.7 958.8 +28.0
09 22.04 В 6 3000 м пыль 9/0
[Cs]
+35.0 +1.8 12 +32 +37 жарко 1009.9 960.2
12 22.04 В 6 3000 м пыль 9/0
[Cs]
+40.4 +3.5 10 +37 +44 очень
жарко
1007.5 958.1
15 22.04 СВ 4 3000 м пыль 9/0
[Cs]
+41.0 +6.4 12 +38 +43 очень
жарко
1004.1 954.9
18 22.04 штиль 0 3000 м пыль 9/0
[Cs]
+37.0 +9.0 18 +35 +35 очень
жарко
1004.4 954.7 +41.5
21 22.04 штиль 0 6000 м пыль 9/0
[Cs]
+32.4 +6.0 19 +30 +30 жарко 1007.4 957.8

 

Местоположение метеостанции Гуре (Нигер): широта 13.98 долгота 10.30 высота над уровнем моря 460 м.

В архиве по умолчанию представлена погода в Гуре за последнюю неделю. Архивные данные за месяц целиком и за предыдущие месяцы, начиная с января 2011 года, Вы можете получить, выбрав интересующий диапазон дат из раскрывающегося списка и нажав кнопку "Ввод!".


*Определитесь, кто Вы:
робот инопланетянин человек

Внимание! Время в таблицах - всемирное. Для получения местного времени необходимо прибавить поправку, которая равна 1 ч.

Смотрите также архив погоды в соседних городах и на ближайших метеорологических станциях:

Погода в Зиндере (Нигер) (144 км)
Погода в Магарьа (Нигер) (185 км)
Погода в Майне-Сороа (Нигер) (200 км)
Погода в Диффе (Нигер) (275 км)
Погода в Кано (Нигерия) (288 км)
Погода в Кацине (Нигерия) (303 км)
Погода в Нгигми (Нигер) (306 км)
Погода в Маради (Нигер) (353 км)
Погода в Агадесе (Нигер) (416 км)
Погода в Гомбе (Нигерия) (422 км)

Пояснения к столбцам:

Ветер - указаны скорость ветра в м/с - средняя за 10 мин, порывы в срок и между сроками (в фигурных скобках) и направление, откуда дует ветер: С - северный, СВ - северо-восточный, В - восточный, ЮВ - юго-восточный, Ю - южный, ЮЗ - юго-западный, З - западный, СЗ - северо-западный.
Видимость - горизонтальная дальность видимости в метрах или километрах. При видимости от 1 до 10 км при отсутствии осадков обычно наблюдается дымка, при ухудшении видимости до 1 км и менее - туман. В сухую погоду видимость может ухудшаться дымом, пылью или мглою.
Явления - указаны атмосферные явления, наблюдавшиеся в срок или в последний час перед сроком; фигурными скобками обозначены явления, наблюдавшиеся между сроками (за 1-3 часа до срока); квадратными скобками обозначены град или гололедные отложения с указанием их диаметра в мм.
Облачность - указаны через наклонную черту общая и нижняя облачность в баллах и высота нижней границы облаков в метрах; квадратными скобками обозначены формы облаков: Ci - перистые, Cs - перисто-слоистые, Cc - перисто-кучевые, Ac - высококучевые, As - высокослоистые, Sc - слоисто-кучевые, Ns - слоисто-дождевые, Cu - кучевые, Cb - кучево-дождевые. Подробнее классификацию облаков см. в Атласе облаков (PDF).
T - Температура воздуха - температура, измеренная на высоте 2 м над землей.
Td - Температура точки росы - температура, при понижении до которой содержащийся в воздухе водяной пар достигнет насыщения.
f - Относительная влажность воздуха - влажноcть воздуха, измеренная на высоте 2 м над землей.
Te - Эффективная температура - температура, которую ощущает одетый по сезону человек в тени. Характеристика душности погоды. При расчете учитывается влияние влажности воздуха и скорости ветра на теплоощущения человека.
Tes - Эффективная температура на солнце - температура, которую ощущает человек, с поправкой на солнечный нагрев. Характеристика знойности погоды. Зависит от высоты солнца над горизонтом, облачности и скорости ветра. Ночью, в пасмурную погоду, а также при ветре 12 м/с и более поправка равна нулю.
P - Атмосферное давление - приведенное к уровню моря атмосферное давление.
Po - Атмосферное давление - измеренное на уровне метеостанции атмосферное давление.
Tmin - Минимальная температура - минимум температуры воздуха на высоте 2 м над землей.
Tmax - Максимальная температура - максимум температуры воздуха на высоте 2 м над землей.
R - Количество осадков - Количество выпавших осадков за период времени, мм. При наведении курсора мыши на число - период времени, за который выпало указанное количество осадков.
R24 - Количество осадков - Количество выпавших осадков за 24 часа, мм.
S - Снежный покров - Высота снежного покрова, см. При наведении курсора мыши на число - состояние снежного покрова и степень покрытия местности в баллах.